Location: Lafig�re
(44.4503°N, 4.0357°E)
Time: 08:05:09
(UTC+00:00)

Cosmos 1125 Rocket - Pass Details

Date: 25 January 2021
Orbit: 756 x 781 km, 74.0° (Epoch: 05 March)

Event Time Altitude Azimuth Distance (km) Brightness Sun altitude
Exits shadow 06:13:24 - 333° (NNW) 3,101 6.2 -10.1°
Reaches altitude 10° 06:15:25 10° 329° (NNW) 2,338 5.6 -9.8°
Maximum altitude 06:20:31 49° 256° (WSW) 1,001 3.8 -8.9°
Drops below altitude 10° 06:25:36 10° 182° (S) 2,327 6.2 -8.1°
Sets 06:28:02 0° 177° (S) 3,250 7.1 -7.7°
